Volver al catálogo

COSMOS 570

ActivoMilitarLEO
NORAD 6681·PAYLOAD·🇷🇺 Russia

Lanzado Jun 8, 1973 desde Plesetsk Cosmodrome

Loading…

Próximos Pases (próximas 24 horas)

TLE

ActualizadoSource: Space-Track

Época: Sep 14, 2026, 09:19 UTC

1 06681U 73037G   26257.38878683 -.00000021  00000-0 -27085-4 0  9995
2 06681  74.0150 257.1759 0091771  26.0658  41.1241 12.63534943456916

Sigue COSMOS 570 en tiempo real con AllMySat

Download on the App Store